KLM1635 OLBA-LIMC

Flight info

Callsign KLM1635
Flight time 3h 38m
Altitude 32000
Route KAD DCT KUKLA M31 LCA M601 EVENO UM601 LAKAD/N0488F340 UM601 RDS UL995 KEA DCT KOR UL53 OLGAT DCT MEBUR
Aircraft MD11/H-SDE1E2E3FGHIJ2J3J4J5M1RWXY/LB1D1

Departure

Time 2026-05-08 15:16
Airport Beirut Rafic Hariri International Airport (OLBA)

Arrival

Time 2026-05-08 18:55
Airport Milan Malpensa International Airport (LIMC)
Time Latitude Longitude Altitude Speed Heading
2026-05-08 14:53 33.82576 35.49625 48 ft 0 kts 306°
2026-05-08 15:05 33.82570 35.49637 46 ft 3 kts 309°
2026-05-08 15:05 33.82557 35.49654 45 ft 3 kts 320°
2026-05-08 15:05 33.82541 35.49669 50 ft 3 kts 334°
2026-05-08 15:05 33.82524 35.49677 47 ft 3 kts 355°
2026-05-08 15:06 33.82507 35.49677 48 ft 3 kts 24°
2026-05-08 15:06 33.82499 35.49672 48 ft 0 kts 36°
2026-05-08 15:12 33.82502 35.49675 52 ft 3 kts 36°
2026-05-08 15:12 33.82523 35.49693 48 ft 4 kts 36°
2026-05-08 15:12 33.82550 35.49716 51 ft 7 kts 34°
2026-05-08 15:12 33.82603 35.49763 49 ft 9 kts 37°
2026-05-08 15:13 33.82650 35.49806 48 ft 8 kts 37°
2026-05-08 15:13 33.82699 35.49848 49 ft 11 kts 35°
2026-05-08 15:13 33.82775 35.49913 50 ft 16 kts 36°
2026-05-08 15:13 33.82867 35.49992 53 ft 15 kts 35°
2026-05-08 15:14 33.82955 35.50066 50 ft 17 kts 39°
2026-05-08 15:14 33.82965 35.50185 44 ft 14 kts 140°
2026-05-08 15:14 33.82872 35.50177 50 ft 16 kts 198°
2026-05-08 15:14 33.82783 35.50141 54 ft 12 kts 178°
2026-05-08 15:15 33.82739 35.50193 47 ft 10 kts 122°
2026-05-08 15:15 33.82672 35.50260 46 ft 14 kts 166°
2026-05-08 15:15 33.82566 35.50215 49 ft 23 kts 210°
2026-05-08 15:15 33.82233 35.49958 47 ft 102 kts 213°
2026-05-08 15:16 33.81393 35.49305 39 ft 182 kts 213°
2026-05-08 15:16 33.80244 35.48429 588 ft 200 kts 213°
2026-05-08 15:16 33.79058 35.47551 1625 ft 201 kts 212°
2026-05-08 15:16 33.77942 35.46576 2466 ft 204 kts 233°
2026-05-08 15:17 33.77500 35.45060 3281 ft 192 kts 278°
2026-05-08 15:17 33.77871 35.43441 3628 ft 215 kts 291°
2026-05-08 15:17 33.77920 35.41527 3775 ft 248 kts 256°
2026-05-08 15:17 33.77015 35.39659 3940 ft 274 kts 226°
2026-05-08 15:18 33.75436 35.38296 4374 ft 284 kts 211°
2026-05-08 15:18 33.73733 35.37120 5117 ft 280 kts 211°
2026-05-08 15:18 33.72116 35.35913 6104 ft 262 kts 213°
2026-05-08 15:18 33.70628 35.34698 6926 ft 257 kts 214°
2026-05-08 15:19 33.69175 35.33427 7682 ft 259 kts 216°
2026-05-08 15:19 33.67735 35.32107 8508 ft 262 kts 217°
2026-05-08 15:19 33.66459 35.30532 9267 ft 266 kts 238°
2026-05-08 15:19 33.65870 35.28408 10023 ft 275 kts 264°
2026-05-08 15:20 33.66122 35.26135 10589 ft 290 kts 287°
2026-05-08 15:20 33.67210 35.23960 10718 ft 320 kts 311°
2026-05-08 15:20 33.69094 35.22316 10884 ft 350 kts 333°
2026-05-08 15:20 33.71459 35.21297 11131 ft 370 kts 342°
2026-05-08 15:21 33.73930 35.20396 11915 ft 372 kts 341°
2026-05-08 15:21 33.76374 35.19370 12777 ft 372 kts 337°
2026-05-08 15:21 33.78733 35.18169 13598 ft 373 kts 333°
2026-05-08 15:21 33.81053 35.16769 14297 ft 374 kts 328°
2026-05-08 15:22 33.83224 35.15037 14972 ft 375 kts 322°
2026-05-08 15:22 33.85301 35.13119 15589 ft 378 kts 320°
2026-05-08 15:22 33.87352 35.11116 16210 ft 381 kts 319°
2026-05-08 15:22 33.89403 35.09079 16821 ft 384 kts 319°
2026-05-08 15:23 33.91471 35.07021 17440 ft 386 kts 319°
2026-05-08 15:23 33.93551 35.04957 18039 ft 389 kts 319°
2026-05-08 15:23 33.95647 35.02883 18570 ft 391 kts 320°
2026-05-08 15:23 33.97756 35.00800 19098 ft 393 kts 320°
2026-05-08 15:24 33.99878 34.98706 19617 ft 394 kts 320°
2026-05-08 15:24 34.02005 34.96608 20113 ft 396 kts 320°
2026-05-08 15:24 34.04138 34.94503 20621 ft 397 kts 320°
2026-05-08 15:24 34.06256 34.92412 21126 ft 399 kts 320°
2026-05-08 15:25 34.08410 34.90284 21641 ft 400 kts 320°
2026-05-08 15:25 34.10568 34.88150 22165 ft 402 kts 320°
2026-05-08 15:25 34.12732 34.86009 22695 ft 404 kts 320°
2026-05-08 15:25 34.14912 34.83850 23229 ft 405 kts 320°
2026-05-08 15:26 34.17103 34.81680 23748 ft 408 kts 320°
2026-05-08 15:26 34.19275 34.79526 24199 ft 409 kts 320°
2026-05-08 15:26 34.21472 34.77347 24697 ft 410 kts 320°
2026-05-08 15:26 34.23674 34.75139 25175 ft 411 kts 318°
2026-05-08 15:27 34.25643 34.72638 25674 ft 411 kts 309°
2026-05-08 15:27 34.27355 34.69858 26164 ft 413 kts 306°
2026-05-08 15:27 34.28959 34.66968 26653 ft 415 kts 304°
2026-05-08 15:27 34.30537 34.64040 27144 ft 416 kts 304°
2026-05-08 15:28 34.32122 34.61104 27609 ft 418 kts 305°
2026-05-08 15:28 34.33725 34.58166 28075 ft 419 kts 305°
2026-05-08 15:28 34.35345 34.55227 28540 ft 420 kts 306°
2026-05-08 15:28 34.36981 34.52276 28992 ft 422 kts 306°
2026-05-08 15:29 34.38624 34.49323 29441 ft 424 kts 306°
2026-05-08 15:29 34.40278 34.46352 29848 ft 425 kts 306°
2026-05-08 15:29 34.41915 34.43411 30235 ft 427 kts 306°
2026-05-08 15:29 34.43575 34.40427 30581 ft 427 kts 306°
2026-05-08 15:30 34.45237 34.37450 31016 ft 425 kts 306°
2026-05-08 15:30 34.46897 34.34500 31484 ft 422 kts 307°
2026-05-08 15:30 34.48551 34.31575 31960 ft 419 kts 307°
2026-05-08 15:30 34.50195 34.28672 32412 ft 416 kts 307°
2026-05-08 15:31 34.51832 34.25783 32844 ft 413 kts 307°
2026-05-08 15:31 34.53451 34.22926 33269 ft 411 kts 307°
2026-05-08 15:31 34.55065 34.20073 33661 ft 408 kts 307°
2026-05-08 15:31 34.56664 34.17245 34075 ft 405 kts 307°
2026-05-08 15:32 34.58254 34.14431 34391 ft 404 kts 307°
2026-05-08 15:32 34.59840 34.11622 34643 ft 403 kts 306°
2026-05-08 15:32 34.61424 34.08814 34890 ft 403 kts 306°
2026-05-08 15:32 34.63002 34.06013 35117 ft 403 kts 306°
2026-05-08 15:33 34.64565 34.03239 35350 ft 402 kts 306°
2026-05-08 15:33 34.66145 34.00435 35563 ft 402 kts 306°
2026-05-08 15:33 34.67727 33.97633 35773 ft 402 kts 306°
2026-05-08 15:33 34.69311 33.94827 35962 ft 402 kts 306°
2026-05-08 15:34 34.72480 33.89204 36030 ft 405 kts 306°
2026-05-08 15:34 34.75637 33.83518 36026 ft 405 kts 306°
2026-05-08 15:35 34.78787 33.77820 36029 ft 405 kts 306°
2026-05-08 15:35 34.81936 33.72121 36035 ft 405 kts 306°
2026-05-08 15:36 34.84554 33.67378 36027 ft 405 kts 305°
2026-05-08 15:36 34.87936 33.60524 36034 ft 408 kts 296°
2026-05-08 15:37 34.89925 33.54027 36035 ft 411 kts 292°
2026-05-08 15:37 34.91758 33.47428 36035 ft 411 kts 292°
2026-05-08 15:38 34.93615 33.40889 36035 ft 411 kts 292°
2026-05-08 15:38 34.95516 33.34319 36037 ft 410 kts 292°
2026-05-08 15:39 34.97420 33.27753 36036 ft 410 kts 292°
2026-05-08 15:39 34.99318 33.21196 36044 ft 410 kts 292°
2026-05-08 15:40 35.01213 33.14637 36045 ft 410 kts 292°
2026-05-08 15:40 35.03098 33.08088 36052 ft 409 kts 292°
2026-05-08 15:41 35.04982 33.01537 36057 ft 409 kts 292°
2026-05-08 15:41 35.06851 32.95028 36057 ft 409 kts 292°
2026-05-08 15:42 35.08663 32.88430 36052 ft 410 kts 291°
2026-05-08 15:42 35.10432 32.81821 36061 ft 408 kts 291°
2026-05-08 15:43 35.12199 32.75211 36063 ft 408 kts 291°
2026-05-08 15:43 35.13950 32.68661 36064 ft 408 kts 291°
2026-05-08 15:44 35.15713 32.62058 36065 ft 408 kts 291°
2026-05-08 15:44 35.17467 32.55470 36060 ft 408 kts 290°
2026-05-08 15:45 35.19221 32.48869 36063 ft 408 kts 290°
2026-05-08 15:45 35.20971 32.42264 36063 ft 408 kts 290°
2026-05-08 15:46 35.22714 32.35671 36060 ft 408 kts 290°
2026-05-08 15:46 35.24457 32.29060 36059 ft 408 kts 290°
2026-05-08 15:47 35.26184 32.22495 36059 ft 408 kts 290°
2026-05-08 15:47 35.27923 32.15865 36056 ft 408 kts 290°
2026-05-08 15:48 35.30517 32.05937 36050 ft 408 kts 289°
2026-05-08 15:49 35.32241 31.99299 36056 ft 409 kts 289°
2026-05-08 15:49 35.33972 31.92681 36056 ft 409 kts 290°
2026-05-08 15:50 35.35713 31.86040 36055 ft 409 kts 290°
2026-05-08 15:50 35.37160 31.80516 36054 ft 410 kts 290°
2026-05-08 15:51 35.38898 31.73868 36054 ft 410 kts 289°
2026-05-08 15:51 35.40634 31.67213 36054 ft 410 kts 289°
2026-05-08 15:52 35.42368 31.60545 36051 ft 410 kts 289°
2026-05-08 15:52 35.44098 31.53875 36051 ft 410 kts 289°
2026-05-08 15:53 35.45821 31.47220 36046 ft 410 kts 289°
2026-05-08 15:53 35.47543 31.40548 36050 ft 410 kts 289°
2026-05-08 15:54 35.49259 31.33880 36049 ft 410 kts 289°
2026-05-08 15:54 35.50960 31.27255 36049 ft 410 kts 289°
2026-05-08 15:55 35.52672 31.20574 36049 ft 410 kts 288°
2026-05-08 15:55 35.55228 31.10560 36049 ft 410 kts 288°
2026-05-08 15:56 35.56909 31.03859 36051 ft 410 kts 288°
2026-05-08 15:56 35.58591 30.97157 36052 ft 410 kts 288°
2026-05-08 15:57 35.60283 30.90451 36051 ft 411 kts 288°
2026-05-08 15:57 35.61969 30.83794 36051 ft 411 kts 288°
2026-05-08 15:58 35.63697 30.77085 36054 ft 411 kts 288°
2026-05-08 15:58 35.65430 30.70383 36057 ft 411 kts 288°
2026-05-08 15:59 35.67161 30.63671 36054 ft 411 kts 288°
2026-05-08 15:59 35.68888 30.56956 36051 ft 411 kts 288°
2026-05-08 16:00 35.70599 30.50289 36053 ft 411 kts 288°
2026-05-08 16:00 35.72316 30.43577 36054 ft 411 kts 288°
2026-05-08 16:01 35.74032 30.36852 36054 ft 412 kts 288°
2026-05-08 16:01 35.75747 30.30112 36054 ft 413 kts 288°
2026-05-08 16:02 35.77463 30.23351 36057 ft 413 kts 287°
2026-05-08 16:02 35.79163 30.16638 36054 ft 413 kts 287°
2026-05-08 16:03 35.80866 30.09893 36051 ft 413 kts 287°
2026-05-08 16:03 35.82572 30.03118 36051 ft 414 kts 287°
2026-05-08 16:04 35.84322 29.96352 36054 ft 414 kts 288°
2026-05-08 16:04 35.86137 29.89618 36051 ft 414 kts 288°
2026-05-08 16:05 35.87956 29.82927 36049 ft 414 kts 288°
2026-05-08 16:05 35.89783 29.76196 36049 ft 414 kts 288°
2026-05-08 16:06 35.91604 29.69460 36051 ft 414 kts 288°
2026-05-08 16:06 35.93421 29.62723 36051 ft 414 kts 288°
2026-05-08 16:07 35.95235 29.55976 36049 ft 414 kts 288°
2026-05-08 16:07 35.97041 29.49231 36049 ft 414 kts 287°
2026-05-08 16:08 35.98853 29.42478 36054 ft 414 kts 287°
2026-05-08 16:08 36.00652 29.35777 36057 ft 414 kts 287°
2026-05-08 16:09 36.02461 29.29029 36054 ft 414 kts 287°
2026-05-08 16:09 36.04267 29.22278 36058 ft 413 kts 287°
2026-05-08 16:10 36.06066 29.15531 36060 ft 413 kts 287°
2026-05-08 16:10 36.07856 29.08805 36061 ft 413 kts 287°
2026-05-08 16:11 36.09646 29.02056 36058 ft 413 kts 287°
2026-05-08 16:11 36.11432 28.95310 36069 ft 413 kts 287°
2026-05-08 16:12 36.13213 28.88563 36062 ft 412 kts 287°
2026-05-08 16:12 36.14980 28.81854 36067 ft 412 kts 287°
2026-05-08 16:13 36.16754 28.75097 36067 ft 412 kts 287°
2026-05-08 16:13 36.18525 28.68337 36071 ft 412 kts 287°
2026-05-08 16:14 36.20289 28.61583 36071 ft 413 kts 286°
2026-05-08 16:14 36.22045 28.54793 36071 ft 414 kts 286°
2026-05-08 16:15 36.23779 28.48009 36073 ft 414 kts 286°
2026-05-08 16:15 36.25518 28.41208 36075 ft 414 kts 286°
2026-05-08 16:16 36.27257 28.34415 36077 ft 413 kts 286°
2026-05-08 16:16 36.28984 28.27665 36076 ft 413 kts 286°
2026-05-08 16:17 36.30427 28.22012 36079 ft 413 kts 286°
2026-05-08 16:17 36.32448 28.14075 36082 ft 413 kts 286°
2026-05-08 16:18 36.34323 28.07330 36064 ft 414 kts 290°
2026-05-08 16:18 36.36618 28.00779 36062 ft 414 kts 292°
2026-05-08 16:19 36.38987 27.94266 36065 ft 413 kts 291°
2026-05-08 16:19 36.41318 27.87793 36068 ft 413 kts 291°
2026-05-08 16:20 36.43649 27.81266 36072 ft 413 kts 291°
2026-05-08 16:20 36.45974 27.74731 36076 ft 413 kts 291°
2026-05-08 16:21 36.48290 27.68194 36077 ft 413 kts 291°
2026-05-08 16:21 36.50608 27.61658 36079 ft 413 kts 291°
2026-05-08 16:22 36.52929 27.55113 36079 ft 413 kts 291°
2026-05-08 16:22 36.55248 27.48565 36079 ft 413 kts 291°
2026-05-08 16:23 36.57546 27.42065 36080 ft 413 kts 291°
2026-05-08 16:23 36.59854 27.35521 36075 ft 413 kts 291°
2026-05-08 16:24 36.62163 27.28958 36069 ft 413 kts 291°
2026-05-08 16:24 36.64466 27.22399 36068 ft 413 kts 291°
2026-05-08 16:25 36.66764 27.15842 36089 ft 413 kts 291°
2026-05-08 16:25 36.69041 27.09284 36088 ft 414 kts 290°
2026-05-08 16:26 36.71308 27.02738 36089 ft 413 kts 290°
2026-05-08 16:26 36.73592 26.96152 36086 ft 414 kts 290°
2026-05-08 16:27 36.75875 26.89569 36084 ft 413 kts 290°
2026-05-08 16:27 36.78157 26.82974 36081 ft 414 kts 290°
2026-05-08 16:28 36.80424 26.76409 36073 ft 415 kts 290°
2026-05-08 16:28 36.82718 26.69748 36068 ft 415 kts 290°
2026-05-08 16:29 36.84973 26.63159 36069 ft 415 kts 290°
2026-05-08 16:29 36.87244 26.56524 36064 ft 415 kts 290°
2026-05-08 16:30 36.89514 26.49884 36066 ft 416 kts 290°
2026-05-08 16:30 36.91777 26.43236 36065 ft 416 kts 290°
2026-05-08 16:31 36.94043 26.36570 36063 ft 416 kts 290°
2026-05-08 16:31 36.96305 26.29906 36065 ft 416 kts 290°
2026-05-08 16:32 36.98564 26.23238 36059 ft 417 kts 290°
2026-05-08 16:32 37.00818 26.16585 36060 ft 417 kts 290°
2026-05-08 16:33 37.03087 26.09898 36073 ft 418 kts 290°
2026-05-08 16:33 37.05358 26.03191 36061 ft 418 kts 290°
2026-05-08 16:34 37.07628 25.96477 36057 ft 418 kts 290°
2026-05-08 16:34 37.09893 25.89760 36060 ft 417 kts 290°
2026-05-08 16:35 37.12147 25.83060 36052 ft 417 kts 290°
2026-05-08 16:35 37.14397 25.76359 36044 ft 417 kts 290°
2026-05-08 16:36 37.16642 25.69654 36035 ft 417 kts 290°
2026-05-08 16:36 37.18884 25.62946 36041 ft 417 kts 290°
2026-05-08 16:37 37.21105 25.56285 36024 ft 416 kts 289°
2026-05-08 16:37 37.23311 25.49582 36025 ft 415 kts 289°
2026-05-08 16:38 37.25458 25.42843 36021 ft 415 kts 289°
2026-05-08 16:38 37.27592 25.36107 36035 ft 415 kts 288°
2026-05-08 16:39 37.29200 25.30440 36050 ft 414 kts 286°
2026-05-08 16:39 37.31021 25.23593 36046 ft 413 kts 286°
2026-05-08 16:40 37.33131 25.15627 36042 ft 413 kts 286°
2026-05-08 16:40 37.34951 25.08782 36036 ft 413 kts 286°
2026-05-08 16:41 37.36477 25.03039 36035 ft 413 kts 286°
2026-05-08 16:42 37.39199 24.92774 36031 ft 415 kts 286°
2026-05-08 16:42 37.41025 24.85893 36028 ft 415 kts 286°
2026-05-08 16:43 37.42853 24.78993 36036 ft 415 kts 286°
2026-05-08 16:43 37.44676 24.72095 36031 ft 415 kts 286°
2026-05-08 16:44 37.46495 24.65194 36038 ft 415 kts 286°
2026-05-08 16:44 37.48297 24.58336 36030 ft 415 kts 286°
2026-05-08 16:45 37.50105 24.51439 36029 ft 415 kts 286°
2026-05-08 16:45 37.51910 24.44536 36021 ft 415 kts 286°
2026-05-08 16:46 37.53708 24.37637 36026 ft 415 kts 286°
2026-05-08 16:46 37.55505 24.30737 36015 ft 414 kts 286°
2026-05-08 16:47 37.57370 24.23868 36024 ft 414 kts 287°
2026-05-08 16:47 37.59282 24.17003 36024 ft 415 kts 287°
2026-05-08 16:48 37.61198 24.10137 36009 ft 414 kts 287°
2026-05-08 16:48 37.63106 24.03278 36009 ft 414 kts 287°
2026-05-08 16:49 37.65005 23.96435 36007 ft 413 kts 287°
2026-05-08 16:49 37.66897 23.89591 36023 ft 413 kts 287°
2026-05-08 16:50 37.68773 23.82789 36021 ft 413 kts 287°
2026-05-08 16:50 37.70657 23.75940 36012 ft 413 kts 287°
2026-05-08 16:51 37.72536 23.69093 36011 ft 411 kts 287°
2026-05-08 16:51 37.74406 23.62262 36010 ft 411 kts 287°
2026-05-08 16:52 37.76271 23.55430 36005 ft 411 kts 287°
2026-05-08 16:52 37.78128 23.48605 36002 ft 411 kts 287°
2026-05-08 16:53 37.80908 23.38362 36003 ft 411 kts 287°
2026-05-08 16:53 37.82744 23.31564 36000 ft 411 kts 287°
2026-05-08 16:54 37.84563 23.24716 36002 ft 411 kts 287°
2026-05-08 16:54 37.86388 23.17867 35997 ft 411 kts 287°
2026-05-08 16:55 37.88220 23.11019 35997 ft 411 kts 287°
2026-05-08 16:55 37.90053 23.04167 35994 ft 411 kts 287°
2026-05-08 16:56 37.91887 22.97299 35992 ft 411 kts 287°
2026-05-08 16:56 37.94427 22.90800 35992 ft 415 kts 300°
2026-05-08 16:57 37.97741 22.84797 35997 ft 414 kts 302°
2026-05-08 16:57 38.01091 22.78876 35991 ft 413 kts 301°
2026-05-08 16:58 38.04385 22.72931 35991 ft 412 kts 301°
2026-05-08 16:58 38.07656 22.66962 35993 ft 411 kts 301°
2026-05-08 16:59 38.10902 22.61028 35994 ft 411 kts 301°
2026-05-08 16:59 38.14166 22.55059 35997 ft 411 kts 301°
2026-05-08 17:00 38.17428 22.49087 36004 ft 411 kts 301°
2026-05-08 17:00 38.20685 22.43115 36017 ft 410 kts 301°
2026-05-08 17:01 38.23919 22.37174 36006 ft 408 kts 301°
2026-05-08 17:01 38.27151 22.31226 36010 ft 408 kts 301°
2026-05-08 17:02 38.30376 22.25279 36027 ft 408 kts 301°
2026-05-08 17:02 38.33589 22.19316 36014 ft 408 kts 301°
2026-05-08 17:03 38.36803 22.13344 36016 ft 409 kts 301°
2026-05-08 17:03 38.40021 22.07367 36017 ft 409 kts 301°
2026-05-08 17:04 38.43224 22.01413 36024 ft 410 kts 301°
2026-05-08 17:04 38.46444 21.95417 36024 ft 410 kts 301°
2026-05-08 17:05 38.49660 21.89419 36026 ft 409 kts 301°
2026-05-08 17:05 38.52874 21.83408 36022 ft 408 kts 301°
2026-05-08 17:06 38.56061 21.77413 36035 ft 408 kts 301°
2026-05-08 17:06 38.59244 21.71429 36027 ft 406 kts 301°
2026-05-08 17:07 38.62400 21.65492 36028 ft 406 kts 301°
2026-05-08 17:07 38.65578 21.59507 36025 ft 406 kts 301°
2026-05-08 17:08 38.68742 21.53536 36031 ft 406 kts 301°
2026-05-08 17:08 38.71913 21.47535 36029 ft 406 kts 301°
2026-05-08 17:09 38.75073 21.41528 36029 ft 407 kts 301°
2026-05-08 17:09 38.78240 21.35513 36023 ft 407 kts 301°
2026-05-08 17:10 38.81402 21.29501 36024 ft 406 kts 301°
2026-05-08 17:10 38.84557 21.23497 36019 ft 407 kts 301°
2026-05-08 17:11 38.87696 21.17508 36017 ft 407 kts 301°
2026-05-08 17:11 38.90851 21.11479 36002 ft 407 kts 301°
2026-05-08 17:12 38.94005 21.05441 35998 ft 407 kts 301°
2026-05-08 17:12 38.97156 20.99397 36004 ft 407 kts 301°
2026-05-08 17:13 39.00298 20.93333 35998 ft 407 kts 301°
2026-05-08 17:13 39.03436 20.87262 35997 ft 407 kts 301°
2026-05-08 17:14 39.06570 20.81203 35995 ft 407 kts 301°
2026-05-08 17:14 39.09681 20.75186 35986 ft 406 kts 301°
2026-05-08 17:15 39.12807 20.69131 35985 ft 406 kts 301°
2026-05-08 17:15 39.15929 20.63072 35986 ft 406 kts 301°
2026-05-08 17:16 39.19057 20.56989 35990 ft 407 kts 301°
2026-05-08 17:16 39.22178 20.50909 35992 ft 406 kts 301°
2026-05-08 17:17 39.25292 20.44831 35976 ft 406 kts 301°
2026-05-08 17:17 39.28383 20.38738 35973 ft 406 kts 300°
2026-05-08 17:18 39.31463 20.32653 35971 ft 407 kts 300°
2026-05-08 17:18 39.34563 20.26533 35981 ft 407 kts 301°
2026-05-08 17:19 39.37667 20.20403 35974 ft 407 kts 301°
2026-05-08 17:19 39.40769 20.14266 35961 ft 409 kts 301°
2026-05-08 17:20 39.44027 20.08176 35955 ft 415 kts 307°
2026-05-08 17:20 39.47980 20.02659 35955 ft 420 kts 310°
2026-05-08 17:21 39.52103 19.97298 35954 ft 420 kts 311°
2026-05-08 17:21 39.56207 19.91909 35954 ft 420 kts 310°
2026-05-08 17:22 39.60292 19.86482 35952 ft 420 kts 310°
2026-05-08 17:22 39.64364 19.81044 35960 ft 420 kts 310°
2026-05-08 17:23 39.68438 19.75593 35953 ft 420 kts 310°
2026-05-08 17:23 39.72476 19.70180 35947 ft 420 kts 310°
2026-05-08 17:24 39.76557 19.64700 35941 ft 420 kts 310°
2026-05-08 17:24 39.80592 19.59273 35942 ft 420 kts 310°
2026-05-08 17:25 39.84647 19.53807 35946 ft 420 kts 310°
2026-05-08 17:25 39.88703 19.48332 35948 ft 420 kts 310°
2026-05-08 17:26 39.92081 19.43763 35949 ft 421 kts 310°
2026-05-08 17:26 39.96808 19.37358 35952 ft 422 kts 310°
2026-05-08 17:27 40.00192 19.32766 35945 ft 422 kts 310°
2026-05-08 17:27 40.04242 19.27226 35948 ft 422 kts 310°
2026-05-08 17:28 40.08289 19.21680 35952 ft 422 kts 310°
2026-05-08 17:28 40.12343 19.16139 35948 ft 422 kts 310°
2026-05-08 17:29 40.16402 19.10589 35947 ft 422 kts 310°
2026-05-08 17:29 40.20470 19.05016 35958 ft 423 kts 310°
2026-05-08 17:30 40.24532 18.99443 35960 ft 424 kts 310°
2026-05-08 17:30 40.28578 18.93881 35934 ft 424 kts 310°
2026-05-08 17:31 40.32504 18.88149 35934 ft 421 kts 305°
2026-05-08 17:31 40.35919 18.81907 35929 ft 421 kts 302°
2026-05-08 17:32 40.39228 18.75570 35933 ft 421 kts 302°
2026-05-08 17:32 40.42555 18.69254 35939 ft 421 kts 302°
2026-05-08 17:33 40.45897 18.62947 35952 ft 421 kts 302°
2026-05-08 17:33 40.49230 18.56660 35930 ft 422 kts 302°
2026-05-08 17:34 40.52580 18.50330 35928 ft 422 kts 302°
2026-05-08 17:34 40.55931 18.43985 35929 ft 422 kts 302°
2026-05-08 17:35 40.59274 18.37640 35928 ft 422 kts 302°
2026-05-08 17:35 40.62614 18.31290 35928 ft 422 kts 302°
2026-05-08 17:36 40.65931 18.24968 35928 ft 422 kts 302°
2026-05-08 17:36 40.69265 18.18603 35927 ft 422 kts 302°
2026-05-08 17:37 40.72599 18.12224 35927 ft 422 kts 302°
2026-05-08 17:37 40.75925 18.05846 35927 ft 422 kts 302°
2026-05-08 17:38 40.79252 17.99445 35940 ft 424 kts 302°
2026-05-08 17:38 40.82564 17.93006 35933 ft 424 kts 302°
2026-05-08 17:39 40.85884 17.86566 35934 ft 424 kts 302°
2026-05-08 17:39 40.89209 17.80129 35938 ft 424 kts 302°
2026-05-08 17:40 40.92538 17.73681 35940 ft 424 kts 302°
2026-05-08 17:40 40.95854 17.67245 35946 ft 424 kts 302°
2026-05-08 17:41 40.99153 17.60826 35947 ft 424 kts 302°
2026-05-08 17:41 41.02471 17.54357 35955 ft 424 kts 301°
2026-05-08 17:42 41.05782 17.47889 35954 ft 424 kts 301°
2026-05-08 17:42 41.09096 17.41400 35953 ft 425 kts 302°
2026-05-08 17:43 41.12409 17.34901 35957 ft 425 kts 301°
2026-05-08 17:43 41.15706 17.28420 35958 ft 426 kts 301°
2026-05-08 17:44 41.19018 17.21896 35961 ft 426 kts 301°
2026-05-08 17:44 41.22322 17.15372 35961 ft 426 kts 301°
2026-05-08 17:45 41.25622 17.08839 35960 ft 426 kts 301°
2026-05-08 17:45 41.28878 17.02318 35963 ft 426 kts 301°
2026-05-08 17:46 41.32166 16.95743 35960 ft 427 kts 301°
2026-05-08 17:46 41.35468 16.89158 35963 ft 427 kts 301°
2026-05-08 17:47 41.38765 16.82578 35975 ft 427 kts 301°
2026-05-08 17:47 41.41510 16.77091 35973 ft 427 kts 301°
2026-05-08 17:48 41.45352 16.69393 35983 ft 427 kts 301°
2026-05-08 17:48 41.48639 16.62789 35978 ft 428 kts 301°
2026-05-08 17:49 41.51904 16.56217 35978 ft 428 kts 301°
2026-05-08 17:49 41.55192 16.49586 35978 ft 428 kts 301°
2026-05-08 17:50 41.58475 16.42947 35983 ft 428 kts 301°
2026-05-08 17:50 41.61756 16.36300 35986 ft 428 kts 301°
2026-05-08 17:51 41.65034 16.29644 35988 ft 430 kts 301°
2026-05-08 17:51 41.68304 16.22988 35989 ft 430 kts 301°
2026-05-08 17:52 41.71585 16.16293 35994 ft 430 kts 300°
2026-05-08 17:53 41.76468 16.06212 35995 ft 430 kts 300°
2026-05-08 17:53 41.79738 15.99481 35995 ft 430 kts 300°
2026-05-08 17:54 41.83006 15.92761 35981 ft 430 kts 300°
2026-05-08 17:54 41.86271 15.86037 35979 ft 430 kts 300°
2026-05-08 17:55 41.89531 15.79306 35981 ft 430 kts 300°
2026-05-08 17:55 41.92786 15.72571 35980 ft 430 kts 300°
2026-05-08 17:56 41.96046 15.65812 35986 ft 431 kts 300°
2026-05-08 17:56 41.99302 15.59043 35984 ft 431 kts 300°
2026-05-08 17:57 42.02535 15.52309 35988 ft 431 kts 300°
2026-05-08 17:57 42.05786 15.45521 35994 ft 432 kts 300°
2026-05-08 17:58 42.09033 15.38726 35993 ft 431 kts 300°
2026-05-08 17:58 42.12276 15.31925 35997 ft 431 kts 300°
2026-05-08 17:59 42.15519 15.25108 35995 ft 432 kts 300°
2026-05-08 17:59 42.18750 15.18255 36002 ft 432 kts 299°
2026-05-08 18:00 42.21950 15.11436 36004 ft 432 kts 300°
2026-05-08 18:00 42.26800 15.01140 36007 ft 434 kts 300°
2026-05-08 18:01 42.30039 14.94262 36006 ft 434 kts 300°
2026-05-08 18:01 42.33282 14.87359 36009 ft 434 kts 299°
2026-05-08 18:02 42.35965 14.81637 36007 ft 434 kts 299°
2026-05-08 18:02 42.39738 14.73570 36007 ft 434 kts 299°
2026-05-08 18:03 42.42960 14.66664 36121 ft 432 kts 299°
2026-05-08 18:03 42.44533 14.63290 36593 ft 427 kts 299°
2026-05-08 18:03 42.46116 14.59888 36835 ft 427 kts 299°
2026-05-08 18:04 42.47700 14.56478 37022 ft 427 kts 299°
2026-05-08 18:04 42.49263 14.53070 37241 ft 426 kts 297°
2026-05-08 18:04 42.50707 14.49556 37458 ft 426 kts 295°
2026-05-08 18:04 42.52115 14.46026 37639 ft 426 kts 296°
2026-05-08 18:05 42.53563 14.42520 37863 ft 426 kts 297°
2026-05-08 18:05 42.55061 14.39043 37968 ft 427 kts 297°
2026-05-08 18:05 42.58136 14.32194 37986 ft 428 kts 298°
2026-05-08 18:06 42.61274 14.25324 37990 ft 428 kts 298°
2026-05-08 18:06 42.64392 14.18444 37997 ft 428 kts 298°
2026-05-08 18:07 42.67517 14.11564 37997 ft 428 kts 298°
2026-05-08 18:07 42.70648 14.04681 38012 ft 428 kts 298°
2026-05-08 18:08 42.73777 13.97792 38016 ft 428 kts 298°
2026-05-08 18:08 42.76885 13.90935 38022 ft 428 kts 298°
2026-05-08 18:09 42.80003 13.84039 38029 ft 428 kts 298°
2026-05-08 18:09 42.83131 13.77103 38029 ft 429 kts 298°
2026-05-08 18:10 42.86254 13.70162 38022 ft 429 kts 298°
2026-05-08 18:10 42.89374 13.63215 38027 ft 430 kts 298°
2026-05-08 18:11 42.92475 13.56289 38023 ft 429 kts 298°
2026-05-08 18:11 42.95606 13.49284 38037 ft 429 kts 298°
2026-05-08 18:12 42.98696 13.42349 38029 ft 431 kts 298°
2026-05-08 18:12 43.01809 13.35351 38030 ft 431 kts 298°
2026-05-08 18:13 43.04912 13.28335 38027 ft 431 kts 298°
2026-05-08 18:13 43.07989 13.21302 38025 ft 431 kts 297°
2026-05-08 18:14 43.11082 13.14260 38022 ft 432 kts 298°
2026-05-08 18:14 43.14186 13.07204 38021 ft 433 kts 298°
2026-05-08 18:15 43.16766 13.01334 38020 ft 432 kts 298°
2026-05-08 18:15 43.19862 12.94275 38020 ft 432 kts 298°
2026-05-08 18:16 43.22955 12.87204 38015 ft 432 kts 298°
2026-05-08 18:16 43.26028 12.80163 38016 ft 433 kts 298°
2026-05-08 18:17 43.29120 12.73061 38007 ft 434 kts 298°
2026-05-08 18:17 43.32213 12.65938 38006 ft 434 kts 298°
2026-05-08 18:18 43.35306 12.58799 38006 ft 435 kts 297°
2026-05-08 18:18 43.38399 12.51642 38006 ft 435 kts 297°
2026-05-08 18:19 43.41483 12.44486 38008 ft 435 kts 297°
2026-05-08 18:19 43.44545 12.37364 38010 ft 435 kts 297°
2026-05-08 18:20 43.47613 12.30188 38007 ft 435 kts 297°
2026-05-08 18:20 43.50658 12.22988 38010 ft 435 kts 297°
2026-05-08 18:21 43.53716 12.15786 38004 ft 435 kts 297°
2026-05-08 18:21 43.56776 12.08593 38005 ft 435 kts 297°
2026-05-08 18:22 43.59837 12.01385 38019 ft 435 kts 297°
2026-05-08 18:22 43.62874 11.94219 38006 ft 435 kts 297°
2026-05-08 18:23 43.65921 11.87008 38000 ft 434 kts 297°
2026-05-08 18:23 43.68960 11.79799 37999 ft 433 kts 297°
2026-05-08 18:24 43.71988 11.72596 37997 ft 433 kts 297°
2026-05-08 18:24 43.75015 11.65380 37999 ft 433 kts 297°
2026-05-08 18:25 43.78038 11.58154 37992 ft 434 kts 297°
2026-05-08 18:25 43.81053 11.50928 37994 ft 434 kts 297°
2026-05-08 18:26 43.84072 11.43677 37987 ft 434 kts 297°
2026-05-08 18:26 43.87064 11.36470 37994 ft 434 kts 297°
2026-05-08 18:27 43.89553 11.30430 37974 ft 434 kts 296°
2026-05-08 18:27 43.93040 11.21894 37968 ft 436 kts 297°
2026-05-08 18:28 43.96032 11.14601 37986 ft 435 kts 297°
2026-05-08 18:28 43.99037 11.07286 37987 ft 436 kts 297°
2026-05-08 18:29 44.02036 10.99972 37984 ft 435 kts 297°
2026-05-08 18:29 44.05009 10.92702 37991 ft 435 kts 297°
2026-05-08 18:30 44.07999 10.85372 37993 ft 435 kts 297°
2026-05-08 18:30 44.10988 10.78024 37994 ft 436 kts 297°
2026-05-08 18:31 44.13969 10.70676 37994 ft 436 kts 297°
2026-05-08 18:31 44.16933 10.63351 37999 ft 436 kts 297°
2026-05-08 18:32 44.19906 10.55985 38005 ft 436 kts 297°
2026-05-08 18:32 44.22882 10.48590 38007 ft 437 kts 297°
2026-05-08 18:33 44.25857 10.41182 38009 ft 437 kts 296°
2026-05-08 18:33 44.28824 10.33776 38004 ft 436 kts 296°
2026-05-08 18:34 44.30275 10.30122 37679 ft 433 kts 296°
2026-05-08 18:34 44.31719 10.26458 37328 ft 430 kts 296°
2026-05-08 18:34 44.33168 10.22780 36739 ft 429 kts 296°
2026-05-08 18:34 44.34604 10.19146 36138 ft 426 kts 296°
2026-05-08 18:35 44.36035 10.15533 35582 ft 425 kts 296°
2026-05-08 18:35 44.37464 10.11925 35009 ft 423 kts 296°
2026-05-08 18:35 44.38892 10.08323 34451 ft 422 kts 296°
2026-05-08 18:35 44.40311 10.04740 33888 ft 419 kts 296°
2026-05-08 18:36 44.41718 10.01183 33256 ft 419 kts 296°
2026-05-08 18:36 44.43132 9.97602 32672 ft 421 kts 296°
2026-05-08 18:36 44.44535 9.94044 32068 ft 423 kts 296°
2026-05-08 18:36 44.45963 9.90417 31467 ft 426 kts 296°
2026-05-08 18:37 44.47397 9.86772 30850 ft 428 kts 296°
2026-05-08 18:37 44.48841 9.83097 30262 ft 431 kts 297°
2026-05-08 18:37 44.50291 9.79402 29476 ft 434 kts 297°
2026-05-08 18:37 44.51754 9.75671 28727 ft 439 kts 297°
2026-05-08 18:38 44.53231 9.71898 28013 ft 444 kts 297°
2026-05-08 18:38 44.54725 9.68076 27285 ft 448 kts 297°
2026-05-08 18:38 44.56229 9.64224 26553 ft 452 kts 297°
2026-05-08 18:38 44.57736 9.60360 25829 ft 451 kts 297°
2026-05-08 18:39 44.59237 9.56506 25113 ft 449 kts 297°
2026-05-08 18:39 44.60731 9.52666 24398 ft 447 kts 297°
2026-05-08 18:39 44.62215 9.48844 23682 ft 445 kts 297°
2026-05-08 18:39 44.63675 9.45081 22869 ft 443 kts 298°
2026-05-08 18:40 44.65142 9.41292 22125 ft 440 kts 298°
2026-05-08 18:40 44.66597 9.37528 21412 ft 437 kts 298°
2026-05-08 18:40 44.68040 9.33791 20706 ft 434 kts 298°
2026-05-08 18:40 44.69467 9.30086 20012 ft 430 kts 298°
2026-05-08 18:41 44.70877 9.26380 19333 ft 428 kts 298°
2026-05-08 18:41 44.72277 9.22696 18640 ft 424 kts 298°
2026-05-08 18:41 44.73936 9.19291 17927 ft 422 kts 312°
2026-05-08 18:41 44.76098 9.16533 17272 ft 419 kts 322°
2026-05-08 18:42 44.78465 9.14164 16665 ft 416 kts 326°
2026-05-08 18:42 44.80877 9.11936 16059 ft 413 kts 326°
2026-05-08 18:42 44.83274 9.09733 15465 ft 410 kts 326°
2026-05-08 18:42 44.85638 9.07518 14866 ft 406 kts 325°
2026-05-08 18:43 44.87967 9.05289 14274 ft 403 kts 325°
2026-05-08 18:43 44.90240 9.03079 13681 ft 400 kts 324°
2026-05-08 18:43 44.92513 9.00846 13062 ft 395 kts 324°
2026-05-08 18:43 44.94730 8.98657 12509 ft 382 kts 325°
2026-05-08 18:44 44.96997 8.96888 11961 ft 360 kts 337°
2026-05-08 18:44 44.99273 8.95772 11485 ft 334 kts 343°
2026-05-08 18:44 45.01479 8.94916 11185 ft 324 kts 345°
2026-05-08 18:44 45.03588 8.94148 11018 ft 300 kts 345°
2026-05-08 18:45 45.05564 8.93428 10943 ft 288 kts 345°
2026-05-08 18:45 45.07486 8.92718 10854 ft 283 kts 345°
2026-05-08 18:45 45.09387 8.92006 10749 ft 283 kts 344°
2026-05-08 18:45 45.11286 8.91289 10647 ft 282 kts 344°
2026-05-08 18:46 45.13183 8.90568 10525 ft 282 kts 344°
2026-05-08 18:46 45.15082 8.89842 10235 ft 284 kts 344°
2026-05-08 18:46 45.17006 8.89105 9670 ft 287 kts 344°
2026-05-08 18:46 45.18941 8.88362 9160 ft 289 kts 345°
2026-05-08 18:47 45.20862 8.87623 8660 ft 290 kts 345°
2026-05-08 18:47 45.22837 8.86863 8155 ft 291 kts 345°
2026-05-08 18:47 45.24782 8.86114 7685 ft 285 kts 345°
2026-05-08 18:47 45.26649 8.85395 7221 ft 272 kts 345°
2026-05-08 18:48 45.28414 8.84714 6814 ft 260 kts 345°
2026-05-08 18:48 45.30102 8.84063 6419 ft 245 kts 345°
2026-05-08 18:48 45.31765 8.83421 6031 ft 243 kts 345°
2026-05-08 18:48 45.33380 8.82797 5646 ft 239 kts 345°
2026-05-08 18:49 45.34957 8.82187 5368 ft 237 kts 345°
2026-05-08 18:49 45.36476 8.81599 5245 ft 212 kts 346°
2026-05-08 18:49 45.37827 8.81075 5148 ft 196 kts 346°
2026-05-08 18:49 45.39127 8.80572 5066 ft 192 kts 346°
2026-05-08 18:50 45.40419 8.80073 4971 ft 192 kts 346°
2026-05-08 18:50 45.41701 8.79531 4760 ft 190 kts 343°
2026-05-08 18:50 45.42968 8.78994 4466 ft 190 kts 346°
2026-05-08 18:50 45.44229 8.78538 4181 ft 180 kts 348°
2026-05-08 18:51 45.45446 8.78190 3930 ft 178 kts 349°
2026-05-08 18:51 45.46654 8.77855 3690 ft 177 kts 349°
2026-05-08 18:51 45.47860 8.77521 3448 ft 176 kts 349°
2026-05-08 18:51 45.49057 8.77191 3207 ft 173 kts 349°
2026-05-08 18:52 45.50223 8.76870 2945 ft 169 kts 349°
2026-05-08 18:52 45.51362 8.76557 2747 ft 169 kts 349°
2026-05-08 18:52 45.52512 8.76241 2510 ft 168 kts 349°
2026-05-08 18:52 45.53658 8.75927 2308 ft 167 kts 348°
2026-05-08 18:53 45.54802 8.75612 2075 ft 167 kts 349°
2026-05-08 18:53 45.55939 8.75300 1858 ft 166 kts 348°
2026-05-08 18:53 45.57071 8.74989 1617 ft 165 kts 349°
2026-05-08 18:53 45.58193 8.74674 1421 ft 164 kts 348°
2026-05-08 18:54 45.59308 8.74355 1156 ft 162 kts 349°
2026-05-08 18:54 45.60403 8.74053 973 ft 161 kts 349°
2026-05-08 18:54 45.61508 8.73760 798 ft 160 kts 349°
2026-05-08 18:54 45.62552 8.73473 735 ft 134 kts 348°
2026-05-08 18:55 45.63577 8.73193 753 ft 29 kts 343°
2026-05-08 18:55 45.63733 8.73054 754 ft 25 kts 319°
2026-05-08 18:55 45.63825 8.72901 756 ft 4 kts 304°
2026-05-08 18:56 45.63825 8.72900 756 ft 0 kts 304°
2026-05-08 18:56 45.63836 8.72878 756 ft 3 kts 304°
2026-05-08 18:56 45.63851 8.72846 758 ft 4 kts 304°
2026-05-08 18:57 45.63872 8.72802 757 ft 8 kts 304°
2026-05-08 18:57 45.63894 8.72756 756 ft 9 kts 304°
2026-05-08 18:57 45.63923 8.72630 763 ft 10 kts 251°
2026-05-08 18:57 45.63870 8.72597 758 ft 8 kts 178°
2026-05-08 18:58 45.63814 8.72605 753 ft 8 kts 171°
2026-05-08 18:58 45.63759 8.72619 755 ft 8 kts 169°
2026-05-08 18:58 45.63694 8.72638 755 ft 13 kts 168°
2026-05-08 18:58 45.63605 8.72664 754 ft 13 kts 168°
2026-05-08 18:59 45.63515 8.72689 752 ft 13 kts 168°
2026-05-08 18:59 45.63430 8.72685 750 ft 9 kts 209°
2026-05-08 18:59 45.63408 8.72621 751 ft 6 kts 252°
2026-05-08 18:59 45.63401 8.72571 750 ft 5 kts 259°
2026-05-08 19:00 45.63396 8.72535 751 ft 6 kts 259°
2026-05-08 19:00 45.63385 8.72455 753 ft 8 kts 259°
2026-05-08 19:00 45.63371 8.72352 751 ft 13 kts 258°
2026-05-08 19:00 45.63350 8.72198 754 ft 16 kts 260°
2026-05-08 19:01 45.63332 8.72053 751 ft 14 kts 260°
2026-05-08 19:01 45.63314 8.71919 753 ft 13 kts 259°
2026-05-08 19:01 45.63304 8.71849 752 ft 0 kts 255°
2026-05-08 19:01 45.63288 8.71847 751 ft 4 kts 178°
2026-05-08 19:02 45.63236 8.71868 749 ft 13 kts 166°
2026-05-08 19:02 45.63123 8.71902 749 ft 17 kts 169°
2026-05-08 19:02 45.63006 8.71934 747 ft 17 kts 168°
2026-05-08 19:02 45.62888 8.71968 746 ft 17 kts 168°
2026-05-08 19:03 45.62771 8.72001 743 ft 17 kts 169°
2026-05-08 19:03 45.62653 8.72033 742 ft 17 kts 169°
2026-05-08 19:03 45.62536 8.72064 739 ft 17 kts 169°
2026-05-08 19:03 45.62419 8.72098 738 ft 17 kts 168°
2026-05-08 19:04 45.62302 8.72130 735 ft 17 kts 169°
2026-05-08 19:04 45.62188 8.72160 734 ft 16 kts 169°
2026-05-08 19:04 45.62079 8.72190 732 ft 16 kts 169°
2026-05-08 19:04 45.62006 8.72210 730 ft 16 kts 169°
2026-05-08 19:05 45.61897 8.72240 728 ft 15 kts 172°
2026-05-08 19:05 45.61847 8.72187 727 ft 8 kts 251°
2026-05-08 19:05 45.61835 8.72115 727 ft 7 kts 253°
2026-05-08 19:05 45.61795 8.72069 729 ft 3 kts 181°
2026-05-08 19:06 45.61772 8.72075 728 ft 6 kts 171°
2026-05-08 19:06 45.61729 8.72086 727 ft 7 kts 169°
2026-05-08 19:06 45.61687 8.72090 726 ft 2 kts 201°
2026-05-08 19:06 45.61672 8.72058 726 ft 5 kts 250°
2026-05-08 19:07 45.61666 8.72005 727 ft 5 kts 262°
2026-05-08 19:07 45.61661 8.71967 727 ft 2 kts 259°
2026-05-08 19:07 45.61660 8.71959 727 ft 0 kts 258°